When you browse on this site, cookies collect data to enhance your experience and personalize the content and advertising you see.
Visit our Privacy Policy to learn more. By continuing to use the site, you agree to this use of cookies and data.
  • In Denmark
  • List of Countries
  • For 7 days
  • Water Temperature
  • Weather Map
  • Weather Widgets
  • user-avatar
    Login

    Hourly Weather Albany

    Today, 1 June, Monday

    Time Temperature Precipitation Wind Pressure Humidity
    00:00 +13°C° 0 mm 3 mps 765 mmHg 82%
    01:00 +13°C° 0 mm 3 mps 765 mmHg 82%
    02:00 +13°C° 0 mm 3 mps 765 mmHg 83%
    03:00 +13°C° 0 mm 3 mps 765 mmHg 83%
    04:00 +13°C° 0 mm 3 mps 765 mmHg 83%
    05:00 +14°C° 0 mm 2 mps 766 mmHg 84%
    06:00 +14°C° 0 mm 2 mps 766 mmHg 83%
    07:00 +14°C° 0 mm 2 mps 766 mmHg 82%
    08:00 +14°C° 0 mm 2 mps 766 mmHg 81%
    09:00 +15°C° 0 mm 2 mps 766 mmHg 76%
    10:00 +17°C° 0 mm 2 mps 766 mmHg 71%
    11:00 +18°C° 0 mm 2 mps 767 mmHg 66%
    12:00 +18°C° 0 mm 2 mps 766 mmHg 66%
    13:00 +18°C° 0 mm 2 mps 766 mmHg 66%
    14:00 +18°C° 0 mm 2 mps 765 mmHg 65%
    15:00 +17°C° 0 mm 2 mps 766 mmHg 68%
    16:00 +16°C° 0 mm 2 mps 766 mmHg 71%
    17:00 +16°C° 0 mm 2 mps 766 mmHg 73%
    18:00 +16°C° 0 mm 2 mps 766 mmHg 75%
    19:00 +15°C° 0 mm 1 mps 766 mmHg 76%
    20:00 +15°C° 0 mm 1 mps 767 mmHg 77%
    21:00 +15°C° 0 mm 1 mps 767 mmHg 77%
    22:00 +15°C° 0 mm 1 mps 767 mmHg 77%
    23:00 +14°C° 0 mm 0 mps 767 mmHg 76%

    Tomorrow, 2 June, Tuesday

    Time Temperature Precipitation Wind Pressure Humidity
    00:00 +14°C° 0 mm 0 mps 767 mmHg 76%
    01:00 +14°C° 0 mm 0 mps 767 mmHg 76%
    02:00 +14°C° 0 mm 0 mps 766 mmHg 76%
    03:00 +13°C° 0 mm 0 mps 767 mmHg 77%
    04:00 +14°C° 0 mm 1 mps 767 mmHg 77%
    05:00 +14°C° 0 mm 1 mps 767 mmHg 78%
    06:00 +13°C° 0 mm 1 mps 767 mmHg 80%
    07:00 +13°C° 0 mm 1 mps 767 mmHg 82%
    08:00 +13°C° 0 mm 2 mps 767 mmHg 83%
    09:00 +15°C° 0 mm 2 mps 767 mmHg 77%
    10:00 +16°C° 0 mm 2 mps 767 mmHg 71%
    11:00 +18°C° 0 mm 3 mps 767 mmHg 65%
    12:00 +18°C° 0 mm 3 mps 766 mmHg 63%
    13:00 +19°C° 0 mm 3 mps 766 mmHg 61%
    14:00 +19°C° 0 mm 3 mps 765 mmHg 59%
    15:00 +18°C° 0 mm 3 mps 765 mmHg 64%
    16:00 +17°C° 0 mm 3 mps 765 mmHg 69%
    17:00 +16°C° 0 mm 3 mps 765 mmHg 74%
    18:00 +16°C° 0 mm 3 mps 765 mmHg 79%
    19:00 +14°C° 0 mm 3 mps 766 mmHg 84%
    20:00 +13°C° 0 mm 4 mps 766 mmHg 89%
    21:00 +13°C° 0 mm 4 mps 766 mmHg 88%
    22:00 +13°C° 0 mm 4 mps 766 mmHg 88%
    23:00 +12°C° 0 mm 4 mps 766 mmHg 88%

    Day after tomorrow, 3 June, Wednesday

    Time Temperature Precipitation Wind Pressure Humidity
    00:00 +12°C° 0 mm 4 mps 766 mmHg 88%
    01:00 +12°C° 0 mm 4 mps 765 mmHg 88%
    02:00 +12°C° 0 mm 4 mps 765 mmHg 88%
    03:00 +12°C° 0 mm 3 mps 765 mmHg 86%
    04:00 +11°C° 0 mm 3 mps 765 mmHg 84%
    05:00 +11°C° 0 mm 3 mps 765 mmHg 81%
    06:00 +11°C° 0 mm 3 mps 765 mmHg 79%
    07:00 +12°C° 0 mm 3 mps 765 mmHg 76%
    08:00 +12°C° 0 mm 3 mps 765 mmHg 74%
    09:00 +14°C° 0 mm 3 mps 765 mmHg 67%
    10:00 +18°C° 0 mm 3 mps 765 mmHg 60%
    11:00 +20°C° 0 mm 4 mps 764 mmHg 53%
    12:00 +21°C° 0 mm 3 mps 764 mmHg 52%
    13:00 +21°C° 0 mm 3 mps 763 mmHg 51%
    14:00 +22°C° 0 mm 3 mps 762 mmHg 50%
    15:00 +21°C° 0 mm 2 mps 762 mmHg 54%
    16:00 +19°C° 0 mm 2 mps 763 mmHg 59%
    17:00 +18°C° 0 mm 2 mps 763 mmHg 64%
    18:00 +17°C° 0 mm 2 mps 763 mmHg 66%
    19:00 +16°C° 0 mm 2 mps 763 mmHg 67%
    20:00 +14°C° 0 mm 3 mps 763 mmHg 68%
    21:00 +14°C° 0 mm 3 mps 763 mmHg 69%
    22:00 +14°C° 0 mm 3 mps 763 mmHg 71%
    23:00 +13°C° 0 mm 3 mps 763 mmHg 72%

    4 June, Thursday

    Time Temperature Precipitation Wind Pressure Humidity
    00:00 +13°C° 0 mm 3 mps 763 mmHg 73%
    01:00 +13°C° 0 mm 3 mps 763 mmHg 73%
    02:00 +13°C° 0 mm 3 mps 763 mmHg 73%
    03:00 +12°C° 0 mm 3 mps 763 mmHg 74%
    04:00 +12°C° 0 mm 3 mps 763 mmHg 75%
    05:00 +12°C° 0 mm 3 mps 763 mmHg 76%
    06:00 +12°C° 0 mm 3 mps 763 mmHg 75%
    07:00 +12°C° 0 mm 3 mps 763 mmHg 75%
    08:00 +12°C° 0 mm 3 mps 763 mmHg 74%
    09:00 +14°C° 0 mm 3 mps 764 mmHg 69%
    10:00 +17°C° 0 mm 3 mps 764 mmHg 65%
    11:00 +19°C° 0 mm 3 mps 764 mmHg 60%
    12:00 +20°C° 0 mm 3 mps 763 mmHg 59%
    13:00 +20°C° 0 mm 3 mps 763 mmHg 59%
    14:00 +21°C° 0 mm 3 mps 763 mmHg 59%
    15:00 +19°C° 0.2 mm 3 mps 763 mmHg 67%
    16:00 +18°C° 0.2 mm 3 mps 763 mmHg 76%
    17:00 +15°C° 0.2 mm 4 mps 764 mmHg 84%
    18:00 +16°C° 0 mm 3 mps 764 mmHg 86%
    19:00 +14°C° 0 mm 3 mps 765 mmHg 88%
    20:00 +14°C° 0 mm 2 mps 765 mmHg 89%
    21:00 +14°C° 0 mm 2 mps 765 mmHg 89%
    22:00 +14°C° 0 mm 2 mps 765 mmHg 89%
    23:00 +13°C° 0 mm 2 mps 765 mmHg 88%

    5 June, Friday

    Time Temperature Precipitation Wind Pressure Humidity
    00:00 +13°C° 0 mm 1 mps 765 mmHg 88%
    01:00 +13°C° 0 mm 1 mps 765 mmHg 88%
    02:00 +13°C° 0 mm 1 mps 766 mmHg 89%
    03:00 +12°C° 0 mm 1 mps 766 mmHg 89%
    04:00 +12°C° 0 mm 1 mps 766 mmHg 90%
    05:00 +12°C° 0 mm 1 mps 766 mmHg 91%
    06:00 +12°C° 0 mm 1 mps 766 mmHg 91%
    07:00 +12°C° 0 mm 1 mps 767 mmHg 91%
    08:00 +13°C° 0 mm 1 mps 767 mmHg 91%
    09:00 +14°C° 0 mm 0 mps 767 mmHg 85%
    10:00 +15°C° 0 mm 0 mps 767 mmHg 79%
    11:00 +17°C° 0 mm 0 mps 767 mmHg 73%
    12:00 +18°C° 0 mm 0 mps 767 mmHg 71%
    13:00 +20°C° 0 mm 1 mps 766 mmHg 69%
    14:00 +20°C° 0 mm 1 mps 766 mmHg 67%
    15:00 +18°C° 0.1 mm 2 mps 766 mmHg 73%
    16:00 +16°C° 0.1 mm 2 mps 766 mmHg 80%
    17:00 +14°C° 0.1 mm 3 mps 766 mmHg 86%
    18:00 +14°C° 0 mm 3 mps 766 mmHg 88%
    19:00 +13°C° 0 mm 3 mps 767 mmHg 89%
    20:00 +13°C° 0 mm 3 mps 767 mmHg 90%
    21:00 +12°C° 0 mm 3 mps 767 mmHg 91%
    22:00 +12°C° 0 mm 3 mps 766 mmHg 91%
    23:00 +12°C° 0 mm 3 mps 766 mmHg 92%

    6 June, Saturday

    Time Temperature Precipitation Wind Pressure Humidity
    00:00 +12°C° 0 mm 3 mps 766 mmHg 92%
    01:00 +11°C° 0 mm 3 mps 766 mmHg 93%
    02:00 +11°C° 0 mm 3 mps 766 mmHg 93%
    03:00 +11°C° 0 mm 4 mps 766 mmHg 93%
    04:00 +11°C° 0 mm 4 mps 765 mmHg 92%
    05:00 +11°C° 0 mm 4 mps 765 mmHg 92%
    06:00 +11°C° 0 mm 4 mps 765 mmHg 91%
    07:00 +10°C° 0 mm 5 mps 766 mmHg 89%
    08:00 +10°C° 0 mm 5 mps 766 mmHg 88%
    09:00 +13°C° 0 mm 5 mps 765 mmHg 80%
    10:00 +15°C° 0 mm 5 mps 765 mmHg 72%
    11:00 +17°C° 0 mm 5 mps 765 mmHg 65%
    12:00 +17°C° 0 mm 5 mps 764 mmHg 63%
    13:00 +19°C° 0 mm 4 mps 763 mmHg 62%
    14:00 +20°C° 0 mm 4 mps 763 mmHg 60%
    15:00 +19°C° 0 mm 4 mps 763 mmHg 64%
    16:00 +18°C° 0 mm 3 mps 763 mmHg 68%
    17:00 +17°C° 0 mm 3 mps 762 mmHg 72%
    18:00 +16°C° 0 mm 3 mps 762 mmHg 74%
    19:00 +16°C° 0 mm 3 mps 763 mmHg 76%
    20:00 +14°C° 0 mm 3 mps 763 mmHg 79%
    21:00 +13°C° 0 mm 3 mps 763 mmHg 80%
    22:00 +14°C° 0 mm 2 mps 763 mmHg 81%
    23:00 +14°C° 0 mm 2 mps 763 mmHg 82%
    Show more